串田-村松彗星

147P/Kushida-Muramatsu (2023)

English version
Home page
Updated on November 9, 2024

---------------------------------------------------------------------

・ プロフィール

・ 軌道要素

Epoch 2024 Oct. 17.0 TT = JDT 2460600.5                                         
T 2023 Dec. 7.36881 TT                                  Rudenko                 
q   3.1598081            (2000.0)            P               Q                  
n   0.12275509     Peri.  348.56702     +0.16946552     -0.98471118             
a   4.0096800      Node    91.66686     +0.90736209     +0.13992581             
e   0.2119550      Incl.    2.31150     +0.38467581     +0.10375286             
P   8.03                                                                        
From 44 observations 2007 Sept. 5-2016 Jan. 8, mean residual 0".8.              

・ 光度変化

        H = 15.5  G = 0.15

---------------------------------------------------------------------

軌道要素はM.P.E.C. 2024-U268に掲載されたものです。
光度グラフはComet for Windowsで作成したものです。

---------------------------------------------------------------------

Copyright(C) Seiichi Yoshida (comet@aerith.net). All rights reserved.